User: anonymous   Login
Location: Unspecified
(0.0000°N, 0.0000°E)
Time: 02:53:16
(UTC+00:00)
Language:

AAUSAT CUBESAT 2 - Orbit

View from above orbital plane
View from above orbital plane
View from above satellite
View from above satellite

Ground track
Ground track

The orbit data is extracted from the following two-line orbital elements,

1 32788U 08021F   18171.77100333  .00000422  00000-0  44235-4 0  9991
2 32788  97.5212 198.1279 0011335 344.9375  15.1506 14.94365416550710
Epoch (UTC): 20 June 2018 18:30:14
Eccentricity: 0.0011335
inclination: 97.5212°
perigee height: 576 km
apogee height: 592 km
right ascension of ascending node: 198.1279°
argument of perigee: 344.9375°
revolutions per day: 14.94365416
mean anomaly at epoch: 15.1506°
orbit number at epoch: 55071

The dashed part of the orbit path shows where the satellite is in the earth's shadow,  

DLR